Simultaneous Nadir Overpasses (SNOs) Predictions

Prediction of SNOs between METOP-C and LANDSAT-8 Satellite Orbit:

Table of predicted SNOs for the next 14.0 days since TLE Epoch: 8/10/2019
Index Date (METOP-C) Time (METOP-C) Lat,Lon (METOP-C) SZA (METOP-C ) Date (LANDSAT-8) Time (LANDSAT-8) Lat,Lon (LANDSAT-8) SZA (LANDSAT-8 ) Distance(km) Time Diff (sec)
1 08/10/2019 21:31:00 -81.13, 77.25 112.32 08/10/2019 21:32:02 -81.13, 77.18 112.30 1.09 62
2 08/10/2019 22:21:41 81.14,-115.26 67.71 08/10/2019 22:21:28 81.14,-115.09 67.73 2.94 13
3 08/13/2019 17:05:22 -81.14, 143.85 111.45 08/13/2019 17:06:18 -81.14, 143.70 111.44 2.59 56
4 08/13/2019 17:56:03 81.14, -48.69 68.59 08/13/2019 17:55:44 81.14, -48.60 68.59 1.46 19
5 08/16/2019 12:39:45 -81.12,-150.30 110.63 08/16/2019 12:40:34 -81.12,-150.18 110.60 2.09 49
6 08/16/2019 13:30:24 81.15, 17.88 69.49 08/16/2019 13:29:59 81.14, 17.86 69.47 0.68 25
7 08/19/2019 08:14:06 -81.14, -83.32 109.65 08/19/2019 08:14:49 -81.14, -83.35 109.63 0.67 43
8 08/19/2019 09:04:45 81.16, 84.83 70.47 08/19/2019 09:04:14 81.16, 84.67 70.44 2.77 31
9 08/22/2019 03:48:29 -81.13, -17.08 108.73 08/22/2019 03:49:05 -81.14, -16.91 108.69 3.22 36




NCC Satellite Simultaneous Nadir Overpasses (SNOs) Prediction Service
